When you browse on this site, cookies collect data to enhance your experience and personalize the content and advertising you see.
Visit our Privacy Policy to learn more. By continuing to use the site, you agree to this use of cookies and data.

Hourly Weather Maseru

Today, 28 September, Monday

Time Temperature Precipitation Wind Pressure Humidity
00:00 +3°C° 0 mm 0 mps 630 mmHg 30%
01:00 +3°C° 0 mm 0 mps 630 mmHg 32%
02:00 +2°C° 0 mm 0 mps 631 mmHg 32%
03:00 +1°C° 0 mm 0 mps 631 mmHg 34%
04:00 +1°C° 0 mm 0 mps 631 mmHg 37%
05:00 +1°C° 0 mm 0 mps 631 mmHg 40%
06:00 +5°C° 0 mm 1 mps 632 mmHg 32%
07:00 +8°C° 0 mm 1 mps 634 mmHg 25%
08:00 +11°C° 0 mm 1 mps 636 mmHg 17%
09:00 +13°C° 0 mm 2 mps 636 mmHg 17%
10:00 +14°C° 0 mm 3 mps 636 mmHg 16%
11:00 +17°C° 0 mm 4 mps 636 mmHg 16%
12:00 +18°C° 0 mm 4 mps 636 mmHg 13%
13:00 +19°C° 0 mm 5 mps 636 mmHg 11%
14:00 +20°C° 0 mm 5 mps 635 mmHg 8%
15:00 +20°C° 0 mm 5 mps 635 mmHg 8%
16:00 +19°C° 0 mm 5 mps 635 mmHg 8%
17:00 +19°C° 0 mm 5 mps 635 mmHg 8%
18:00 +14°C° 0 mm 4 mps 635 mmHg 11%
19:00 +11°C° 0 mm 3 mps 634 mmHg 15%
20:00 +7°C° 0 mm 2 mps 633 mmHg 18%
21:00 +7°C° 0 mm 1 mps 633 mmHg 20%
22:00 +6°C° 0 mm 1 mps 633 mmHg 23%
23:00 +5°C° 0 mm 1 mps 633 mmHg 25%

Tomorrow, 29 September, Tuesday

Time Temperature Precipitation Wind Pressure Humidity
00:00 +5°C° 0 mm 1 mps 633 mmHg 29%
01:00 +4°C° 0 mm 1 mps 633 mmHg 32%
02:00 +4°C° 0 mm 1 mps 632 mmHg 36%
03:00 +2°C° 0 mm 0 mps 633 mmHg 38%
04:00 +2°C° 0 mm 0 mps 633 mmHg 41%
05:00 +2°C° 0 mm 0 mps 633 mmHg 43%
06:00 +5°C° 0 mm 0 mps 635 mmHg 34%
07:00 +8°C° 0 mm 0 mps 636 mmHg 25%
08:00 +12°C° 0 mm 0 mps 637 mmHg 17%
09:00 +14°C° 0 mm 1 mps 638 mmHg 15%
10:00 +16°C° 0 mm 1 mps 638 mmHg 13%
11:00 +18°C° 0 mm 2 mps 638 mmHg 10%
12:00 +19°C° 0 mm 3 mps 638 mmHg 10%
13:00 +20°C° 0 mm 3 mps 637 mmHg 9%
14:00 +21°C° 0 mm 4 mps 637 mmHg 8%
15:00 +20°C° 0 mm 4 mps 637 mmHg 8%
16:00 +20°C° 0 mm 5 mps 636 mmHg 8%
17:00 +19°C° 0 mm 5 mps 636 mmHg 9%
18:00 +15°C° 0 mm 4 mps 636 mmHg 11%
19:00 +12°C° 0 mm 4 mps 636 mmHg 14%
20:00 +10°C° 0 mm 3 mps 635 mmHg 16%
21:00 +8°C° 0 mm 2 mps 635 mmHg 18%
22:00 +7°C° 0 mm 2 mps 635 mmHg 20%
23:00 +7°C° 0 mm 1 mps 634 mmHg 21%

Day after tomorrow, 30 September, Wednesday

Time Temperature Precipitation Wind Pressure Humidity
00:00 +6°C° 0 mm 1 mps 634 mmHg 25%
01:00 +6°C° 0 mm 1 mps 633 mmHg 29%
02:00 +5°C° 0 mm 1 mps 633 mmHg 33%
03:00 +4°C° 0 mm 1 mps 633 mmHg 46%
04:00 +4°C° 0 mm 1 mps 632 mmHg 58%
05:00 +3°C° 0 mm 1 mps 632 mmHg 71%
06:00 +6°C° 0 mm 2 mps 633 mmHg 64%
07:00 +8°C° 0 mm 4 mps 634 mmHg 57%
08:00 +13°C° 0 mm 5 mps 635 mmHg 50%
09:00 +16°C° 0 mm 6 mps 635 mmHg 41%
10:00 +18°C° 0 mm 7 mps 635 mmHg 31%
11:00 +22°C° 0 mm 8 mps 635 mmHg 22%
12:00 +23°C° 0 mm 9 mps 634 mmHg 19%
13:00 +24°C° 0 mm 9 mps 634 mmHg 15%
14:00 +26°C° 0 mm 9 mps 633 mmHg 12%
15:00 +26°C° 0 mm 9 mps 632 mmHg 12%
16:00 +26°C° 0 mm 9 mps 632 mmHg 11%
17:00 +26°C° 0 mm 9 mps 631 mmHg 10%
18:00 +21°C° 0 mm 7 mps 630 mmHg 11%
19:00 +17°C° 0 mm 4 mps 629 mmHg 12%
20:00 +13°C° 0 mm 2 mps 628 mmHg 13%
21:00 +12°C° 0 mm 2 mps 628 mmHg 13%
22:00 +11°C° 0 mm 1 mps 628 mmHg 13%
23:00 +10°C° 0 mm 1 mps 628 mmHg 14%

1 October, Thursday

Time Temperature Precipitation Wind Pressure Humidity
00:00 +10°C° 0 mm 1 mps 628 mmHg 25%
01:00 +9°C° 0 mm 2 mps 628 mmHg 36%
02:00 +9°C° 0 mm 2 mps 628 mmHg 47%
03:00 +10°C° 0 mm 2 mps 628 mmHg 62%
04:00 +10°C° 0 mm 3 mps 628 mmHg 77%
05:00 +10°C° 0 mm 3 mps 628 mmHg 92%
06:00 +12°C° 0.3 mm 4 mps 629 mmHg 88%
07:00 +13°C° 0.3 mm 4 mps 629 mmHg 84%
08:00 +14°C° 0.3 mm 5 mps 630 mmHg 81%
09:00 +15°C° 0.8 mm 6 mps 630 mmHg 76%
10:00 +16°C° 0.8 mm 6 mps 630 mmHg 70%
11:00 +17°C° 0.8 mm 7 mps 630 mmHg 65%
12:00 +20°C° 0.4 mm 8 mps 630 mmHg 51%
13:00 +22°C° 0.4 mm 9 mps 631 mmHg 36%
14:00 +24°C° 0.4 mm 10 mps 631 mmHg 22%
15:00 +22°C° 0 mm 10 mps 631 mmHg 24%
16:00 +19°C° 0 mm 9 mps 631 mmHg 26%
17:00 +17°C° 0 mm 8 mps 631 mmHg 29%
18:00 +14°C° 0 mm 7 mps 632 mmHg 38%
19:00 +9°C° 0 mm 5 mps 632 mmHg 47%
20:00 +6°C° 0 mm 4 mps 632 mmHg 56%
21:00 +5°C° 0 mm 3 mps 633 mmHg 56%
22:00 +5°C° 0 mm 2 mps 633 mmHg 56%
23:00 +5°C° 0 mm 2 mps 634 mmHg 56%

2 October, Friday

Time Temperature Precipitation Wind Pressure Humidity
00:00 +4°C° 0.1 mm 2 mps 634 mmHg 62%
01:00 +3°C° 0.1 mm 3 mps 634 mmHg 67%
02:00 +3°C° 0.1 mm 4 mps 634 mmHg 73%
03:00 +1°C° 0.7 mm 4 mps 634 mmHg 79%
04:00 +2°C° 0.7 mm 3 mps 635 mmHg 84%
05:00 +2°C° 0.7 mm 2 mps 635 mmHg 90%
06:00 +2°C° 1.1 mm 2 mps 635 mmHg 90%
07:00 +2°C° 1.1 mm 2 mps 636 mmHg 89%
08:00 +2°C° 1.1 mm 2 mps 636 mmHg 88%
09:00 +5°C° 0.2 mm 2 mps 637 mmHg 80%
10:00 +7°C° 0.2 mm 2 mps 637 mmHg 72%
11:00 +9°C° 0.2 mm 2 mps 638 mmHg 63%
12:00 +10°C° 0 mm 2 mps 638 mmHg 60%
13:00 +12°C° 0 mm 1 mps 638 mmHg 57%
14:00 +13°C° 0 mm 1 mps 638 mmHg 54%
15:00 +13°C° 0 mm 2 mps 638 mmHg 54%
16:00 +13°C° 0 mm 2 mps 639 mmHg 53%
17:00 +12°C° 0 mm 3 mps 639 mmHg 53%
18:00 +12°C° 0 mm 2 mps 639 mmHg 58%
19:00 +9°C° 0 mm 2 mps 639 mmHg 62%
20:00 +9°C° 0 mm 1 mps 639 mmHg 67%
21:00 +8°C° 0 mm 1 mps 640 mmHg 68%
22:00 +7°C° 0 mm 1 mps 640 mmHg 70%
23:00 +6°C° 0 mm 1 mps 640 mmHg 71%

3 October, Saturday

Time Temperature Precipitation Wind Pressure Humidity
00:00 +5°C° 0 mm 1 mps 640 mmHg 73%
01:00 +5°C° 0 mm 1 mps 639 mmHg 74%
02:00 +4°C° 0 mm 1 mps 639 mmHg 76%
03:00 +4°C° 0 mm 1 mps 639 mmHg 77%
04:00 +4°C° 0 mm 1 mps 639 mmHg 78%
05:00 +3°C° 0 mm 1 mps 640 mmHg 79%
06:00 +5°C° 0 mm 1 mps 640 mmHg 72%
07:00 +7°C° 0 mm 1 mps 640 mmHg 64%
08:00 +9°C° 0 mm 1 mps 641 mmHg 57%
09:00 +11°C° 0 mm 1 mps 641 mmHg 50%
10:00 +13°C° 0 mm 1 mps 641 mmHg 43%
11:00 +16°C° 0 mm 1 mps 641 mmHg 37%
12:00 +18°C° 0 mm 1 mps 641 mmHg 32%
13:00 +19°C° 0 mm 1 mps 641 mmHg 28%
14:00 +20°C° 0 mm 1 mps 640 mmHg 23%
15:00 +20°C° 0 mm 1 mps 640 mmHg 22%
16:00 +20°C° 0 mm 1 mps 640 mmHg 22%
17:00 +19°C° 0 mm 2 mps 640 mmHg 21%
18:00 +17°C° 0 mm 2 mps 640 mmHg 25%
19:00 +15°C° 0 mm 2 mps 640 mmHg 30%
20:00 +13°C° 0 mm 2 mps 640 mmHg 34%
21:00 +12°C° 0 mm 2 mps 640 mmHg 39%
22:00 +10°C° 0 mm 2 mps 640 mmHg 44%
23:00 +9°C° 0 mm 2 mps 640 mmHg 49%
Show more